SWR9VE LEBL-LSZH

Flight info

Callsign SWR9VE
Flight time 1h 27m
Altitude 34000
Route DALIN DCT PIVUS DCT DIBER DCT ODIXU DCT MAXIR DCT LUSOL DCT BODRU DCT OKTET DCT IRMAR DCT KINES DCT VANAS DCT MOBLO DCT LAMUR DCT GUDAX Z57 DOPIL
Aircraft A321/M-SDE3FGHIRWY/LB1

Departure

Time 2026-05-05 17:56
Airport Josep Tarradellas Barcelona-El Prat Airport (LEBL)

Arrival

Time 2026-05-05 19:24
Airport Zürich Airport (LSZH)
Time Latitude Longitude Altitude Speed Heading
2026-05-05 17:16 41.29046 2.08117 3 ft 0 kts 335°
2026-05-05 17:47 41.29042 2.08120 3 ft 3 kts 335°
2026-05-05 17:47 41.29021 2.08132 4 ft 3 kts 335°
2026-05-05 17:47 41.29004 2.08143 5 ft 3 kts 331°
2026-05-05 17:48 41.28989 2.08160 6 ft 3 kts 282°
2026-05-05 17:48 41.28990 2.08188 6 ft 3 kts 248°
2026-05-05 17:48 41.28999 2.08214 5 ft 3 kts 245°
2026-05-05 17:48 41.29001 2.08220 5 ft 0 kts 245°
2026-05-05 17:50 41.28991 2.08193 5 ft 7 kts 245°
2026-05-05 17:50 41.28972 2.08140 4 ft 7 kts 237°
2026-05-05 17:51 41.28914 2.08142 3 ft 12 kts 155°
2026-05-05 17:51 41.28835 2.08191 4 ft 12 kts 155°
2026-05-05 17:51 41.28762 2.08231 3 ft 9 kts 167°
2026-05-05 17:51 41.28711 2.08252 4 ft 8 kts 126°
2026-05-05 17:52 41.28724 2.08329 5 ft 11 kts 65°
2026-05-05 17:52 41.28764 2.08444 10 ft 16 kts 65°
2026-05-05 17:52 41.28823 2.08618 6 ft 24 kts 65°
2026-05-05 17:52 41.28893 2.08822 3 ft 24 kts 65°
2026-05-05 17:53 41.28961 2.09019 3 ft 23 kts 65°
2026-05-05 17:53 41.29033 2.09229 5 ft 27 kts 65°
2026-05-05 17:53 41.29112 2.09460 4 ft 27 kts 65°
2026-05-05 17:53 41.29188 2.09682 3 ft 26 kts 65°
2026-05-05 17:54 41.29257 2.09883 3 ft 18 kts 65°
2026-05-05 17:54 41.29306 2.09989 3 ft 12 kts 63°
2026-05-05 17:54 41.29324 2.10091 3 ft 11 kts 100°
2026-05-05 17:54 41.29297 2.10186 3 ft 12 kts 111°
2026-05-05 17:55 41.29268 2.10278 4 ft 9 kts 122°
2026-05-05 17:55 41.29223 2.10299 5 ft 7 kts 192°
2026-05-05 17:55 41.29174 2.10195 5 ft 31 kts 245°
2026-05-05 17:55 41.28980 2.09629 8 ft 100 kts 245°
2026-05-05 17:56 41.28611 2.08560 13 ft 151 kts 245°
2026-05-05 17:56 41.28150 2.07218 477 ft 158 kts 244°
2026-05-05 17:56 41.27506 2.06066 1152 ft 161 kts 217°
2026-05-05 17:56 41.26367 2.05668 1451 ft 182 kts 184°
2026-05-05 17:57 41.25048 2.05649 1736 ft 199 kts 184°
2026-05-05 17:57 41.23597 2.05658 1957 ft 216 kts 182°
2026-05-05 17:57 41.22074 2.05672 2415 ft 220 kts 182°
2026-05-05 17:57 41.20539 2.05679 2972 ft 221 kts 182°
2026-05-05 17:58 41.18988 2.05673 3548 ft 223 kts 182°
2026-05-05 17:58 41.17434 2.05657 4147 ft 225 kts 183°
2026-05-05 17:58 41.15824 2.05611 4565 ft 238 kts 184°
2026-05-05 17:58 41.14150 2.05537 5147 ft 243 kts 185°
2026-05-05 17:59 41.12455 2.05459 5802 ft 244 kts 185°
2026-05-05 17:59 41.10752 2.05375 6409 ft 246 kts 186°
2026-05-05 17:59 41.09001 2.05464 6765 ft 265 kts 169°
2026-05-05 17:59 41.07324 2.06654 7190 ft 286 kts 138°
2026-05-05 18:00 41.06282 2.08924 7815 ft 298 kts 105°
2026-05-05 18:00 41.06274 2.11670 8485 ft 304 kts 73°
2026-05-05 18:00 41.07220 2.14184 9148 ft 308 kts 56°
2026-05-05 18:00 41.08457 2.16520 9825 ft 312 kts 51°
2026-05-05 18:01 41.09805 2.18830 10215 ft 326 kts 50°
2026-05-05 18:01 41.11260 2.21271 10359 ft 348 kts 50°
2026-05-05 18:01 41.12787 2.23870 10659 ft 363 kts 51°
2026-05-05 18:01 41.14326 2.26560 11222 ft 368 kts 52°
2026-05-05 18:02 41.15862 2.29308 11820 ft 373 kts 53°
2026-05-05 18:02 41.17405 2.32110 12371 ft 379 kts 54°
2026-05-05 18:02 41.18963 2.34958 12939 ft 384 kts 54°
2026-05-05 18:02 41.20519 2.37809 13523 ft 388 kts 54°
2026-05-05 18:03 41.22133 2.40771 14080 ft 393 kts 54°
2026-05-05 18:03 41.23725 2.43689 14589 ft 398 kts 54°
2026-05-05 18:03 41.25358 2.46683 15107 ft 402 kts 54°
2026-05-05 18:03 41.27010 2.49711 15619 ft 407 kts 54°
2026-05-05 18:04 41.28682 2.52775 16124 ft 412 kts 54°
2026-05-05 18:04 41.30371 2.55874 16623 ft 416 kts 54°
2026-05-05 18:04 41.32079 2.59010 17136 ft 421 kts 54°
2026-05-05 18:04 41.33799 2.62172 17721 ft 422 kts 54°
2026-05-05 18:05 41.35528 2.65352 18231 ft 426 kts 54°
2026-05-05 18:05 41.37270 2.68561 18623 ft 430 kts 54°
2026-05-05 18:05 41.39030 2.71806 18986 ft 436 kts 54°
2026-05-05 18:05 41.40813 2.75095 19380 ft 440 kts 54°
2026-05-05 18:06 41.42619 2.78422 19778 ft 444 kts 54°
2026-05-05 18:06 41.43819 2.80632 20044 ft 447 kts 54°
2026-05-05 18:06 41.46266 2.85147 20578 ft 452 kts 54°
2026-05-05 18:06 41.48110 2.88563 20975 ft 456 kts 54°
2026-05-05 18:07 41.49967 2.92012 21368 ft 460 kts 54°
2026-05-05 18:07 41.51840 2.95493 21765 ft 464 kts 54°
2026-05-05 18:07 41.53725 2.99001 22227 ft 466 kts 55°
2026-05-05 18:07 41.55616 3.02521 22687 ft 468 kts 55°
2026-05-05 18:08 41.57516 3.06064 23030 ft 471 kts 55°
2026-05-05 18:08 41.59434 3.09642 23344 ft 476 kts 55°
2026-05-05 18:08 41.61368 3.13252 23652 ft 480 kts 55°
2026-05-05 18:08 41.63317 3.16893 23960 ft 483 kts 55°
2026-05-05 18:09 41.65276 3.20561 24270 ft 486 kts 55°
2026-05-05 18:09 41.67249 3.24258 24569 ft 489 kts 55°
2026-05-05 18:09 41.69228 3.27974 24874 ft 492 kts 55°
2026-05-05 18:09 41.71193 3.31667 25176 ft 495 kts 55°
2026-05-05 18:10 41.73121 3.35498 25489 ft 497 kts 61°
2026-05-05 18:10 41.74680 3.39622 25814 ft 497 kts 68°
2026-05-05 18:10 41.76091 3.43873 26116 ft 500 kts 68°
2026-05-05 18:10 41.77498 3.48134 26404 ft 503 kts 68°
2026-05-05 18:11 41.78919 3.52438 26681 ft 506 kts 68°
2026-05-05 18:11 41.80347 3.56758 26959 ft 509 kts 68°
2026-05-05 18:11 41.81783 3.61103 27228 ft 512 kts 68°
2026-05-05 18:11 41.83232 3.65482 27505 ft 515 kts 68°
2026-05-05 18:12 41.84685 3.69875 27780 ft 517 kts 68°
2026-05-05 18:12 41.86147 3.74300 28042 ft 520 kts 68°
2026-05-05 18:12 41.87616 3.78754 28300 ft 523 kts 68°
2026-05-05 18:12 41.89089 3.83232 28520 ft 525 kts 68°
2026-05-05 18:13 41.90559 3.87730 28794 ft 527 kts 69°
2026-05-05 18:13 41.92027 3.92244 29050 ft 530 kts 69°
2026-05-05 18:13 41.93507 3.96791 29330 ft 532 kts 69°
2026-05-05 18:13 41.94997 4.01357 29545 ft 535 kts 69°
2026-05-05 18:14 41.96487 4.05934 29799 ft 537 kts 69°
2026-05-05 18:14 41.97983 4.10547 30015 ft 540 kts 69°
2026-05-05 18:14 41.99480 4.15171 30260 ft 540 kts 69°
2026-05-05 18:14 42.00983 4.19809 30568 ft 539 kts 69°
2026-05-05 18:15 42.02477 4.24425 30893 ft 539 kts 69°
2026-05-05 18:15 42.03963 4.29026 31210 ft 538 kts 69°
2026-05-05 18:15 42.05460 4.33653 31549 ft 538 kts 68°
2026-05-05 18:15 42.07218 4.38115 31871 ft 540 kts 59°
2026-05-05 18:16 42.09395 4.42215 32179 ft 540 kts 50°
2026-05-05 18:16 42.11970 4.45901 32548 ft 539 kts 41°
2026-05-05 18:16 42.14822 4.49170 32827 ft 538 kts 38°
2026-05-05 18:16 42.17698 4.52390 33105 ft 538 kts 38°
2026-05-05 18:17 42.20572 4.55622 33385 ft 538 kts 38°
2026-05-05 18:17 42.23443 4.58856 33598 ft 538 kts 38°
2026-05-05 18:17 42.26313 4.62096 33837 ft 538 kts 38°
2026-05-05 18:18 42.32011 4.68555 33918 ft 532 kts 39°
2026-05-05 18:18 42.37626 4.74924 33899 ft 530 kts 39°
2026-05-05 18:19 42.43273 4.81331 33898 ft 530 kts 39°
2026-05-05 18:19 42.48917 4.87750 33895 ft 530 kts 39°
2026-05-05 18:20 42.54554 4.94187 33909 ft 529 kts 39°
2026-05-05 18:20 42.60179 5.00620 33869 ft 529 kts 39°
2026-05-05 18:21 42.65810 5.07092 33875 ft 531 kts 39°
2026-05-05 18:21 42.71453 5.13583 33886 ft 532 kts 39°
2026-05-05 18:22 42.77097 5.20080 33893 ft 532 kts 39°
2026-05-05 18:22 42.82747 5.26605 33897 ft 532 kts 39°
2026-05-05 18:23 42.88390 5.33139 33906 ft 533 kts 39°
2026-05-05 18:23 42.94037 5.39693 33922 ft 532 kts 39°
2026-05-05 18:24 42.99659 5.46248 33914 ft 532 kts 39°
2026-05-05 18:24 43.05277 5.52821 33905 ft 531 kts 39°
2026-05-05 18:24 43.08280 5.55717 33902 ft 526 kts 26°
2026-05-05 18:25 43.11486 5.58137 33928 ft 526 kts 25°
2026-05-05 18:25 43.17906 5.62950 33928 ft 526 kts 25°
2026-05-05 18:26 43.23249 5.66943 33931 ft 526 kts 25°
2026-05-05 18:26 43.29665 5.71747 33909 ft 526 kts 25°
2026-05-05 18:27 43.36088 5.76592 33908 ft 526 kts 26°
2026-05-05 18:27 43.42493 5.81451 33914 ft 526 kts 26°
2026-05-05 18:28 43.52117 5.88753 33933 ft 526 kts 26°
2026-05-05 18:28 43.58531 5.93619 33935 ft 526 kts 26°
2026-05-05 18:29 43.64931 5.98494 33940 ft 525 kts 26°
2026-05-05 18:29 43.71323 6.03373 33956 ft 525 kts 26°
2026-05-05 18:30 43.77704 6.08259 33948 ft 524 kts 25°
2026-05-05 18:30 43.84166 6.12856 33914 ft 522 kts 22°
2026-05-05 18:31 43.90740 6.17183 33941 ft 523 kts 21°
2026-05-05 18:31 43.97304 6.21525 33938 ft 523 kts 22°
2026-05-05 18:32 44.03832 6.25996 33942 ft 523 kts 22°
2026-05-05 18:32 44.10338 6.30510 33967 ft 522 kts 22°
2026-05-05 18:33 44.16799 6.34971 33955 ft 521 kts 22°
2026-05-05 18:33 44.23341 6.39483 33946 ft 521 kts 22°
2026-05-05 18:34 44.29825 6.43970 33958 ft 520 kts 22°
2026-05-05 18:34 44.36310 6.48465 33902 ft 519 kts 22°
2026-05-05 18:35 44.42744 6.52929 33915 ft 519 kts 22°
2026-05-05 18:35 44.49213 6.57435 33948 ft 519 kts 23°
2026-05-05 18:36 44.55668 6.61950 33939 ft 518 kts 22°
2026-05-05 18:36 44.62113 6.66467 33930 ft 517 kts 23°
2026-05-05 18:37 44.68552 6.70989 33938 ft 517 kts 23°
2026-05-05 18:37 44.75002 6.75473 33930 ft 515 kts 19°
2026-05-05 18:38 44.81783 6.78242 33942 ft 502 kts
2026-05-05 18:38 44.88625 6.78469 33934 ft 488 kts 349°
2026-05-05 18:39 44.95414 6.78025 33921 ft 488 kts 349°
2026-05-05 18:39 45.02198 6.77593 33939 ft 489 kts 349°
2026-05-05 18:40 45.08991 6.77139 33948 ft 488 kts 349°
2026-05-05 18:40 45.15776 6.76683 33940 ft 488 kts 349°
2026-05-05 18:41 45.22539 6.76233 33948 ft 486 kts 350°
2026-05-05 18:41 45.29285 6.75783 33942 ft 484 kts 350°
2026-05-05 18:42 45.36012 6.75333 33934 ft 483 kts 350°
2026-05-05 18:42 45.42736 6.74888 33946 ft 484 kts 351°
2026-05-05 18:43 45.49444 6.74442 33942 ft 482 kts 350°
2026-05-05 18:43 45.56132 6.73978 33919 ft 480 kts 350°
2026-05-05 18:44 45.62768 6.73512 33947 ft 480 kts 350°
2026-05-05 18:44 45.69483 6.73037 33933 ft 479 kts 350°
2026-05-05 18:45 45.76104 6.72602 33935 ft 481 kts 353°
2026-05-05 18:45 45.82807 6.73857 33959 ft 492 kts 13°
2026-05-05 18:46 45.89176 6.77605 33942 ft 495 kts 21°
2026-05-05 18:46 45.95447 6.81700 33940 ft 495 kts 21°
2026-05-05 18:47 46.01709 6.85801 33946 ft 495 kts 21°
2026-05-05 18:47 46.07960 6.89908 33937 ft 493 kts 22°
2026-05-05 18:48 46.14194 6.94023 33936 ft 492 kts 22°
2026-05-05 18:48 46.20420 6.98132 33953 ft 491 kts 22°
2026-05-05 18:49 46.23468 7.00145 33561 ft 488 kts 22°
2026-05-05 18:49 46.26595 7.02215 32874 ft 487 kts 22°
2026-05-05 18:49 46.29636 7.04231 32207 ft 487 kts 22°
2026-05-05 18:49 46.32719 7.06277 31547 ft 487 kts 22°
2026-05-05 18:50 46.35798 7.08323 30877 ft 487 kts 23°
2026-05-05 18:50 46.38874 7.10368 30257 ft 486 kts 23°
2026-05-05 18:50 46.41945 7.12412 29562 ft 486 kts 23°
2026-05-05 18:50 46.45007 7.14449 28973 ft 481 kts 23°
2026-05-05 18:51 46.48023 7.16460 28459 ft 475 kts 23°
2026-05-05 18:51 46.51015 7.18456 27918 ft 470 kts 24°
2026-05-05 18:51 46.53976 7.20436 27392 ft 466 kts 24°
2026-05-05 18:51 46.56863 7.22506 26869 ft 462 kts 30°
2026-05-05 18:52 46.59509 7.25095 26332 ft 457 kts 39°
2026-05-05 18:52 46.61913 7.28090 25815 ft 452 kts 41°
2026-05-05 18:52 46.64280 7.31087 25317 ft 448 kts 41°
2026-05-05 18:52 46.66625 7.34041 24806 ft 445 kts 41°
2026-05-05 18:53 46.68953 7.36973 24307 ft 441 kts 41°
2026-05-05 18:53 46.71264 7.39887 23839 ft 436 kts 41°
2026-05-05 18:53 46.73542 7.42764 23352 ft 432 kts 41°
2026-05-05 18:53 46.75798 7.45620 22804 ft 427 kts 41°
2026-05-05 18:54 46.78008 7.48488 22236 ft 423 kts 45°
2026-05-05 18:54 46.79944 7.51695 21723 ft 420 kts 52°
2026-05-05 18:54 46.81754 7.55031 21201 ft 418 kts 52°
2026-05-05 18:54 46.83557 7.58349 20719 ft 415 kts 52°
2026-05-05 18:55 46.85352 7.61642 20462 ft 414 kts 52°
2026-05-05 18:55 46.87144 7.64926 20203 ft 413 kts 52°
2026-05-05 18:55 46.88932 7.68200 19978 ft 412 kts 52°
2026-05-05 18:55 46.90713 7.71472 19914 ft 411 kts 52°
2026-05-05 18:56 46.92492 7.74747 19935 ft 412 kts 52°
2026-05-05 18:56 46.94270 7.78029 19923 ft 411 kts 52°
2026-05-05 18:56 46.96044 7.81311 19680 ft 410 kts 52°
2026-05-05 18:56 46.97810 7.84583 19435 ft 409 kts 52°
2026-05-05 18:57 46.99567 7.87847 19186 ft 407 kts 52°
2026-05-05 18:57 47.01316 7.91105 18950 ft 406 kts 52°
2026-05-05 18:57 47.03060 7.94351 18714 ft 405 kts 52°
2026-05-05 18:57 47.04803 7.97590 18474 ft 404 kts 52°
2026-05-05 18:58 47.06522 8.00772 18234 ft 403 kts 51°
2026-05-05 18:58 47.08488 8.03754 17984 ft 401 kts 43°
2026-05-05 18:58 47.10487 8.06531 17898 ft 400 kts 43°
2026-05-05 18:58 47.12503 8.09351 17932 ft 400 kts 43°
2026-05-05 18:59 47.14532 8.12203 17813 ft 397 kts 44°
2026-05-05 18:59 47.16520 8.15004 17300 ft 395 kts 43°
2026-05-05 18:59 47.18497 8.17790 16799 ft 392 kts 43°
2026-05-05 18:59 47.20681 8.20134 16308 ft 388 kts 25°
2026-05-05 19:00 47.23199 8.21423 15828 ft 381 kts
2026-05-05 19:00 47.25815 8.21562 15421 ft 374 kts 349°
2026-05-05 19:00 47.28306 8.20635 15050 ft 367 kts 333°
2026-05-05 19:00 47.30584 8.18995 14711 ft 364 kts 329°
2026-05-05 19:01 47.32841 8.17315 14469 ft 363 kts 329°
2026-05-05 19:01 47.35093 8.15637 14219 ft 362 kts 329°
2026-05-05 19:01 47.37322 8.13978 13986 ft 354 kts 328°
2026-05-05 19:01 47.39455 8.12396 13889 ft 340 kts 328°
2026-05-05 19:02 47.41546 8.10846 13918 ft 324 kts 328°
2026-05-05 19:02 47.43490 8.09406 13902 ft 309 kts 328°
2026-05-05 19:02 47.45403 8.08024 13905 ft 295 kts 328°
2026-05-05 19:02 47.47179 8.06690 13901 ft 286 kts 320°
2026-05-05 19:03 47.48646 8.04748 13910 ft 276 kts 302°
2026-05-05 19:03 47.49560 8.02363 13911 ft 267 kts 284°
2026-05-05 19:03 47.49922 7.99677 13909 ft 261 kts 267°
2026-05-05 19:03 47.49728 7.97035 13902 ft 258 kts 256°
2026-05-05 19:04 47.49410 7.94418 13903 ft 259 kts 257°
2026-05-05 19:04 47.49116 7.91788 13901 ft 259 kts 258°
2026-05-05 19:04 47.48801 7.89170 13896 ft 258 kts 251°
2026-05-05 19:04 47.48051 7.86795 13896 ft 255 kts 233°
2026-05-05 19:05 47.46776 7.84983 13893 ft 257 kts 213°
2026-05-05 19:05 47.45121 7.83976 13892 ft 261 kts 194°
2026-05-05 19:05 47.43286 7.83945 13900 ft 270 kts 173°
2026-05-05 19:05 47.41522 7.84970 13901 ft 279 kts 151°
2026-05-05 19:06 47.40119 7.87004 13901 ft 290 kts 127°
2026-05-05 19:06 47.39359 7.89794 13903 ft 300 kts 102°
2026-05-05 19:06 47.39456 7.92890 13910 ft 308 kts 75°
2026-05-05 19:06 47.40460 7.95670 13913 ft 310 kts 46°
2026-05-05 19:07 47.42165 7.97546 13910 ft 306 kts 19°
2026-05-05 19:07 47.43507 7.98161 13859 ft 305 kts
2026-05-05 19:07 47.46279 7.99006 13499 ft 303 kts
2026-05-05 19:07 47.48286 7.99965 13224 ft 306 kts 29°
2026-05-05 19:08 47.49859 8.02064 12964 ft 307 kts 57°
2026-05-05 19:08 47.50636 8.04947 12703 ft 301 kts 86°
2026-05-05 19:08 47.50490 8.07950 12441 ft 287 kts 114°
2026-05-05 19:08 47.49711 8.10602 12186 ft 278 kts 122°
2026-05-05 19:09 47.48834 8.13125 11968 ft 274 kts 123°
2026-05-05 19:09 47.47952 8.15613 11903 ft 273 kts 123°
2026-05-05 19:09 47.47066 8.18102 11910 ft 274 kts 123°
2026-05-05 19:09 47.46180 8.20595 11911 ft 274 kts 123°
2026-05-05 19:10 47.45593 8.22248 11915 ft 274 kts 123°
2026-05-05 19:10 47.44705 8.24740 11912 ft 274 kts 123°
2026-05-05 19:10 47.43816 8.27231 11912 ft 274 kts 123°
2026-05-05 19:10 47.42601 8.30488 11908 ft 270 kts 134°
2026-05-05 19:11 47.41260 8.32318 11918 ft 260 kts 151°
2026-05-05 19:11 47.39760 8.33801 11906 ft 259 kts 153°
2026-05-05 19:11 47.38729 8.34759 11912 ft 260 kts 153°
2026-05-05 19:11 47.37182 8.36166 11781 ft 262 kts 154°
2026-05-05 19:12 47.35637 8.37564 11532 ft 259 kts 154°
2026-05-05 19:12 47.34103 8.38946 11273 ft 258 kts 154°
2026-05-05 19:12 47.32576 8.40318 11030 ft 257 kts 154°
2026-05-05 19:12 47.31127 8.41847 10782 ft 260 kts 136°
2026-05-05 19:13 47.30242 8.44198 10528 ft 269 kts 106°
2026-05-05 19:13 47.30212 8.46952 10275 ft 274 kts 80°
2026-05-05 19:13 47.30715 8.49681 10031 ft 276 kts 74°
2026-05-05 19:13 47.31297 8.52366 9894 ft 275 kts 74°
2026-05-05 19:14 47.31889 8.55044 9887 ft 275 kts 74°
2026-05-05 19:14 47.32488 8.57727 9891 ft 276 kts 73°
2026-05-05 19:14 47.33080 8.60416 9891 ft 275 kts 77°
2026-05-05 19:14 47.33392 8.63193 9776 ft 275 kts 87°
2026-05-05 19:15 47.33552 8.65978 9512 ft 272 kts 88°
2026-05-05 19:15 47.33689 8.68746 9246 ft 270 kts 89°
2026-05-05 19:15 47.33822 8.71508 8939 ft 269 kts 89°
2026-05-05 19:15 47.33952 8.74257 8608 ft 268 kts 88°
2026-05-05 19:16 47.34068 8.76970 8365 ft 262 kts 88°
2026-05-05 19:16 47.34172 8.79637 8083 ft 259 kts 89°
2026-05-05 19:16 47.34269 8.82288 7781 ft 258 kts 89°
2026-05-05 19:16 47.34361 8.84924 7446 ft 257 kts 89°
2026-05-05 19:17 47.34524 8.87544 7068 ft 257 kts 74°
2026-05-05 19:17 47.35383 8.89812 6781 ft 254 kts 42°
2026-05-05 19:17 47.36870 8.91112 6583 ft 245 kts 12°
2026-05-05 19:17 47.38516 8.91574 6333 ft 237 kts
2026-05-05 19:18 47.40118 8.91882 6066 ft 227 kts
2026-05-05 19:18 47.41583 8.91464 5818 ft 209 kts 326°
2026-05-05 19:18 47.42609 8.90087 5585 ft 194 kts 306°
2026-05-05 19:18 47.43276 8.88424 5327 ft 185 kts 287°
2026-05-05 19:19 47.43511 8.86593 5088 ft 181 kts 274°
2026-05-05 19:19 47.43646 8.84756 5002 ft 180 kts 275°
2026-05-05 19:19 47.43782 8.82925 5007 ft 180 kts 275°
2026-05-05 19:19 47.43918 8.81085 4897 ft 180 kts 275°
2026-05-05 19:20 47.44053 8.79250 4678 ft 179 kts 275°
2026-05-05 19:20 47.44186 8.77428 4430 ft 178 kts 275°
2026-05-05 19:20 47.44319 8.75613 4174 ft 177 kts 273°
2026-05-05 19:20 47.44450 8.73811 3914 ft 175 kts 274°
2026-05-05 19:21 47.44578 8.72070 3654 ft 166 kts 273°
2026-05-05 19:21 47.44698 8.70423 3432 ft 157 kts 273°
2026-05-05 19:21 47.44809 8.68890 3213 ft 147 kts 273°
2026-05-05 19:21 47.44916 8.67407 2989 ft 144 kts 273°
2026-05-05 19:22 47.45021 8.65941 2785 ft 143 kts 272°
2026-05-05 19:22 47.45126 8.64472 2574 ft 144 kts 274°
2026-05-05 19:22 47.45232 8.62995 2338 ft 145 kts 274°
2026-05-05 19:22 47.45341 8.61511 2132 ft 147 kts 274°
2026-05-05 19:23 47.45448 8.60008 1895 ft 147 kts 273°
2026-05-05 19:23 47.45557 8.58495 1690 ft 148 kts 273°
2026-05-05 19:23 47.45665 8.56981 1464 ft 148 kts 272°
2026-05-05 19:23 47.45765 8.55532 1405 ft 128 kts 276°
2026-05-05 19:24 47.45825 8.54699 1391 ft 35 kts 276°
2026-05-05 19:24 47.45810 8.54455 1387 ft 21 kts 249°
2026-05-05 19:24 47.45764 8.54295 1387 ft 12 kts 247°
2026-05-05 19:24 47.45704 8.54206 1384 ft 13 kts 195°
2026-05-05 19:25 47.45627 8.54244 1384 ft 11 kts 133°
2026-05-05 19:25 47.45596 8.54353 1386 ft 14 kts 108°
2026-05-05 19:25 47.45565 8.54494 1389 ft 13 kts 107°
2026-05-05 19:25 47.45538 8.54617 1389 ft 13 kts 108°
2026-05-05 19:26 47.45506 8.54765 1391 ft 17 kts 108°
2026-05-05 19:26 47.45468 8.54929 1396 ft 16 kts 109°
2026-05-05 19:26 47.45435 8.55064 1402 ft 12 kts 109°
2026-05-05 19:26 47.45404 8.55199 1402 ft 16 kts 108°
2026-05-05 19:27 47.45363 8.55331 1402 ft 11 kts 118°
2026-05-05 19:27 47.45335 8.55407 1407 ft 6 kts 119°
2026-05-05 19:27 47.45330 8.55420 1406 ft 0 kts 119°
2026-05-05 19:27 47.45321 8.55443 1407 ft 7 kts 119°
2026-05-05 19:28 47.45293 8.55517 1411 ft 11 kts 118°
2026-05-05 19:28 47.45271 8.55643 1410 ft 13 kts 96°
2026-05-05 19:28 47.45262 8.55772 1407 ft 12 kts 96°
2026-05-05 19:28 47.45253 8.55891 1407 ft 11 kts 96°
2026-05-05 19:29 47.45250 8.55985 1407 ft 6 kts 74°
2026-05-05 19:29 47.45283 8.56010 1407 ft 6 kts 10°
2026-05-05 19:29 47.45314 8.56016 1407 ft 2 kts
2026-05-05 19:29 47.45316 8.56016 1407 ft 0 kts